AFR1704 LFPG-EGKK

Flight info

Callsign AFR1704
Flight time N/A
Altitude 24000
Route OPALE DCT KESAX DCT KUNAV
Aircraft A321/M-SDE3FGHIRWY/LB1

Departure

Time N/A
Airport Charles de Gaulle International Airport (LFPG)

Arrival

Time 2026-05-06 03:21
Airport London Gatwick Airport (EGKK)
Time Latitude Longitude Altitude Speed Heading
2026-05-06 02:38 49.60368 2.21717 24009 ft 376 kts 324°
2026-05-06 02:38 49.62375 2.19485 24009 ft 376 kts 324°
2026-05-06 02:38 49.64498 2.17119 24009 ft 376 kts 324°
2026-05-06 02:39 49.66618 2.14748 24009 ft 376 kts 324°
2026-05-06 02:39 49.68736 2.12377 24009 ft 376 kts 323°
2026-05-06 02:39 49.70855 2.09999 24009 ft 376 kts 323°
2026-05-06 02:39 49.72973 2.07626 24009 ft 376 kts 324°
2026-05-06 02:40 49.75092 2.05260 24010 ft 376 kts 324°
2026-05-06 02:40 49.77212 2.02895 24010 ft 376 kts 324°
2026-05-06 02:40 49.79335 2.00519 24009 ft 376 kts 323°
2026-05-06 02:40 49.81451 1.98140 24009 ft 376 kts 323°
2026-05-06 02:41 49.83562 1.95761 24008 ft 376 kts 323°
2026-05-06 02:41 49.85682 1.93371 24007 ft 376 kts 323°
2026-05-06 02:41 49.87766 1.91021 24008 ft 376 kts 323°
2026-05-06 02:41 49.89877 1.88636 24008 ft 376 kts 323°
2026-05-06 02:42 49.91966 1.86201 24008 ft 376 kts 322°
2026-05-06 02:42 49.94022 1.83695 24008 ft 376 kts 321°
2026-05-06 02:42 49.96062 1.81151 24008 ft 376 kts 321°
2026-05-06 02:42 49.98093 1.78601 24008 ft 376 kts 321°
2026-05-06 02:43 50.00130 1.76051 24008 ft 376 kts 321°
2026-05-06 02:43 50.02169 1.73507 24009 ft 376 kts 321°
2026-05-06 02:43 50.04208 1.70967 24009 ft 376 kts 321°
2026-05-06 02:43 50.06247 1.68435 24009 ft 375 kts 321°
2026-05-06 02:44 50.08279 1.65874 24009 ft 375 kts 320°
2026-05-06 02:44 50.10271 1.63241 24010 ft 375 kts 319°
2026-05-06 02:44 50.12235 1.60566 24009 ft 375 kts 318°
2026-05-06 02:44 50.14190 1.57875 24009 ft 375 kts 318°
2026-05-06 02:45 50.16147 1.55175 24009 ft 375 kts 318°
2026-05-06 02:45 50.18101 1.52483 24009 ft 375 kts 318°
2026-05-06 02:45 50.20058 1.49798 24009 ft 375 kts 318°
2026-05-06 02:45 50.22019 1.47114 24008 ft 375 kts 319°
2026-05-06 02:46 50.23981 1.44433 24008 ft 375 kts 319°
2026-05-06 02:46 50.25941 1.41753 24008 ft 375 kts 319°
2026-05-06 02:46 50.27904 1.39072 24008 ft 375 kts 319°
2026-05-06 02:46 50.29866 1.36389 24009 ft 375 kts 319°
2026-05-06 02:47 50.31828 1.33708 24010 ft 375 kts 319°
2026-05-06 02:47 50.33790 1.31020 24010 ft 375 kts 319°
2026-05-06 02:47 50.35749 1.28332 24011 ft 375 kts 318°
2026-05-06 02:47 50.37711 1.25637 24011 ft 375 kts 318°
2026-05-06 02:48 50.39667 1.22947 24011 ft 375 kts 318°
2026-05-06 02:48 50.41600 1.20282 24011 ft 374 kts 318°
2026-05-06 02:48 50.43554 1.17580 24009 ft 374 kts 318°
2026-05-06 02:48 50.45534 1.14843 24008 ft 374 kts 318°
2026-05-06 02:49 50.47622 1.12431 24008 ft 374 kts 332°
2026-05-06 02:49 50.50047 1.11151 24003 ft 374 kts 351°
2026-05-06 02:49 50.52640 1.11163 24003 ft 374 kts 10°
2026-05-06 02:49 50.55088 1.12496 23997 ft 375 kts 29°
2026-05-06 02:50 50.57152 1.14970 23996 ft 374 kts 43°
2026-05-06 02:50 50.59042 1.17795 23993 ft 375 kts 43°
2026-05-06 02:50 50.60933 1.20633 23991 ft 375 kts 43°
2026-05-06 02:50 50.62824 1.23469 23991 ft 376 kts 43°
2026-05-06 02:51 50.64716 1.26308 23991 ft 376 kts 43°
2026-05-06 02:51 50.66609 1.29157 23938 ft 380 kts 43°
2026-05-06 02:51 50.68535 1.32058 23694 ft 384 kts 43°
2026-05-06 02:51 50.69843 1.34029 23519 ft 385 kts 43°
2026-05-06 02:52 50.72397 1.37879 23195 ft 383 kts 43°
2026-05-06 02:52 50.74323 1.40781 22943 ft 382 kts 43°
2026-05-06 02:52 50.75621 1.42735 22774 ft 381 kts 43°
2026-05-06 02:52 50.78153 1.46553 22442 ft 379 kts 43°
2026-05-06 02:53 50.79437 1.48493 22273 ft 378 kts 43°
2026-05-06 02:53 50.81946 1.52295 21942 ft 376 kts 43°
2026-05-06 02:53 50.83219 1.54226 21773 ft 375 kts 44°
2026-05-06 02:53 50.85072 1.57046 21526 ft 374 kts 44°
2026-05-06 02:54 50.86943 1.59894 21276 ft 372 kts 44°
2026-05-06 02:54 50.88832 1.62768 21026 ft 371 kts 44°
2026-05-06 02:54 50.90663 1.65555 20775 ft 369 kts 44°
2026-05-06 02:54 50.92515 1.68372 20525 ft 368 kts 44°
2026-05-06 02:55 50.94352 1.71183 20274 ft 367 kts 44°
2026-05-06 02:55 50.96182 1.73989 20021 ft 365 kts 44°
2026-05-06 02:55 50.98005 1.76782 19774 ft 364 kts 44°
2026-05-06 02:55 50.99822 1.79568 19534 ft 363 kts 44°
2026-05-06 02:56 51.01633 1.82359 19273 ft 361 kts 44°
2026-05-06 02:56 51.03435 1.85131 19022 ft 360 kts 44°
2026-05-06 02:56 51.05232 1.87894 18772 ft 358 kts 44°
2026-05-06 02:56 51.07025 1.90652 18521 ft 357 kts 44°
2026-05-06 02:57 51.08890 1.93228 18262 ft 355 kts 33°
2026-05-06 02:57 51.11133 1.94805 18020 ft 353 kts 13°
2026-05-06 02:57 51.13559 1.95121 17774 ft 351 kts 354°
2026-05-06 02:57 51.15902 1.94156 17524 ft 349 kts 335°
2026-05-06 02:58 51.17910 1.92034 17269 ft 347 kts 316°
2026-05-06 02:58 51.19368 1.89008 17021 ft 345 kts 297°
2026-05-06 02:58 51.20145 1.85408 16769 ft 343 kts 279°
2026-05-06 02:58 51.20158 1.81626 16519 ft 342 kts 260°
2026-05-06 02:59 51.19402 1.78051 16269 ft 341 kts 242°
2026-05-06 02:59 51.17990 1.75044 16018 ft 340 kts 224°
2026-05-06 02:59 51.16109 1.72770 15769 ft 340 kts 214°
2026-05-06 02:59 51.14218 1.70524 15517 ft 338 kts 221°
2026-05-06 03:00 51.12627 1.67786 15267 ft 337 kts 233°
2026-05-06 03:00 51.11432 1.64598 15017 ft 335 kts 245°
2026-05-06 03:00 51.10664 1.61151 14767 ft 334 kts 256°
2026-05-06 03:00 51.10307 1.57511 14520 ft 333 kts 264°
2026-05-06 03:01 51.10072 1.53853 14273 ft 332 kts 264°
2026-05-06 03:01 51.09826 1.50214 14020 ft 330 kts 264°
2026-05-06 03:01 51.09569 1.46541 13764 ft 329 kts 263°
2026-05-06 03:01 51.09315 1.42977 13522 ft 328 kts 263°
2026-05-06 03:02 51.09057 1.39377 13268 ft 327 kts 263°
2026-05-06 03:02 51.08803 1.35796 13018 ft 325 kts 263°
2026-05-06 03:02 51.08549 1.32224 12761 ft 324 kts 263°
2026-05-06 03:02 51.08297 1.28671 12516 ft 323 kts 263°
2026-05-06 03:03 51.08044 1.25128 12269 ft 322 kts 263°
2026-05-06 03:03 51.07787 1.21551 12013 ft 321 kts 263°
2026-05-06 03:03 51.07537 1.18038 11763 ft 319 kts 263°
2026-05-06 03:03 51.07288 1.14576 11515 ft 318 kts 263°
2026-05-06 03:04 51.07032 1.11092 11265 ft 317 kts 263°
2026-05-06 03:04 51.06779 1.07617 11015 ft 316 kts 263°
2026-05-06 03:04 51.06525 1.04157 10765 ft 315 kts 263°
2026-05-06 03:04 51.06272 1.00708 10514 ft 314 kts 263°
2026-05-06 03:05 51.06021 0.97271 10264 ft 312 kts 263°
2026-05-06 03:05 51.05686 0.93866 10012 ft 311 kts 256°
2026-05-06 03:05 51.04997 0.90711 9850 ft 294 kts 245°
2026-05-06 03:05 51.04119 0.87825 9724 ft 288 kts 244°
2026-05-06 03:06 51.03263 0.84968 9598 ft 286 kts 245°
2026-05-06 03:06 51.02419 0.82115 9476 ft 285 kts 245°
2026-05-06 03:06 51.01575 0.79271 9348 ft 285 kts 245°
2026-05-06 03:06 51.00727 0.76435 9224 ft 284 kts 245°
2026-05-06 03:07 50.99880 0.73607 9099 ft 284 kts 245°
2026-05-06 03:07 50.99035 0.70785 8975 ft 283 kts 245°
2026-05-06 03:07 50.98190 0.67966 8848 ft 282 kts 245°
2026-05-06 03:07 50.97348 0.65154 8720 ft 282 kts 245°
2026-05-06 03:08 50.96507 0.62349 8598 ft 282 kts 245°
2026-05-06 03:08 50.95666 0.59547 8472 ft 281 kts 244°
2026-05-06 03:08 50.94821 0.56754 8349 ft 281 kts 244°
2026-05-06 03:08 50.93974 0.53966 8222 ft 280 kts 244°
2026-05-06 03:09 50.93133 0.51187 8096 ft 280 kts 244°
2026-05-06 03:09 50.92301 0.48403 7977 ft 279 kts 247°
2026-05-06 03:09 50.91768 0.45464 7843 ft 278 kts 262°
2026-05-06 03:09 50.91712 0.42408 7720 ft 278 kts 276°
2026-05-06 03:10 50.92119 0.39426 7596 ft 277 kts 287°
2026-05-06 03:10 50.92666 0.36501 7471 ft 277 kts 286°
2026-05-06 03:10 50.93203 0.33587 7303 ft 270 kts 286°
2026-05-06 03:10 50.93711 0.30819 7171 ft 254 kts 286°
2026-05-06 03:11 50.94194 0.28180 6927 ft 246 kts 286°
2026-05-06 03:11 50.94665 0.25644 6935 ft 239 kts 287°
2026-05-06 03:11 50.95209 0.23135 6826 ft 241 kts 290°
2026-05-06 03:11 50.95792 0.20641 6683 ft 241 kts 290°
2026-05-06 03:12 50.96388 0.18162 6528 ft 241 kts 291°
2026-05-06 03:12 50.96985 0.15686 6370 ft 240 kts 290°
2026-05-06 03:12 50.97572 0.13213 6209 ft 239 kts 290°
2026-05-06 03:12 50.98146 0.10772 6055 ft 239 kts 290°
2026-05-06 03:13 50.98726 0.08307 5898 ft 238 kts 290°
2026-05-06 03:13 50.99302 0.05846 5737 ft 238 kts 290°
2026-05-06 03:13 50.99877 0.03392 5583 ft 237 kts 290°
2026-05-06 03:13 51.00447 0.00936 5418 ft 236 kts 290°
2026-05-06 03:14 51.01012 -0.01510 5273 ft 236 kts 290°
2026-05-06 03:14 51.01576 -0.03961 5115 ft 235 kts 290°
2026-05-06 03:14 51.02137 -0.06401 4956 ft 235 kts 290°
2026-05-06 03:14 51.02700 -0.08834 4802 ft 234 kts 290°
2026-05-06 03:15 51.03266 -0.11259 4629 ft 234 kts 290°
2026-05-06 03:15 51.03828 -0.13685 4494 ft 233 kts 290°
2026-05-06 03:15 51.04383 -0.16101 4336 ft 233 kts 290°
2026-05-06 03:15 51.04931 -0.18484 4187 ft 232 kts 290°
2026-05-06 03:16 51.05484 -0.20892 4032 ft 232 kts 290°
2026-05-06 03:16 51.06032 -0.23301 3880 ft 231 kts 290°
2026-05-06 03:16 51.06573 -0.25661 3727 ft 223 kts 290°
2026-05-06 03:16 51.07093 -0.27920 3579 ft 209 kts 290°
2026-05-06 03:17 51.07569 -0.29999 3472 ft 194 kts 290°
2026-05-06 03:17 51.08031 -0.32008 3389 ft 193 kts 290°
2026-05-06 03:17 51.08490 -0.34015 3298 ft 193 kts 290°
2026-05-06 03:17 51.08949 -0.36018 3206 ft 192 kts 291°
2026-05-06 03:18 51.09746 -0.37665 3116 ft 192 kts 331°
2026-05-06 03:18 51.11032 -0.38035 3041 ft 192 kts 12°
2026-05-06 03:18 51.12153 -0.36947 3042 ft 194 kts 54°
2026-05-06 03:18 51.12604 -0.34970 3060 ft 185 kts 79°
2026-05-06 03:19 51.12860 -0.33055 3006 ft 167 kts 79°
2026-05-06 03:19 51.13060 -0.31315 2752 ft 155 kts 80°
2026-05-06 03:19 51.13249 -0.29643 2135 ft 161 kts 80°
2026-05-06 03:19 51.13455 -0.27837 1367 ft 168 kts 74°
2026-05-06 03:20 51.14043 -0.24562 753 ft 139 kts 77°
2026-05-06 03:20 51.14247 -0.23111 564 ft 130 kts 77°
2026-05-06 03:20 51.14437 -0.21745 388 ft 124 kts 77°
2026-05-06 03:21 51.14622 -0.20418 225 ft 120 kts 77°
2026-05-06 03:21 51.14770 -0.19348 212 ft 46 kts 77°
2026-05-06 03:21 51.14822 -0.18956 208 ft 35 kts 78°
2026-05-06 03:21 51.14879 -0.18638 207 ft 26 kts 61°
2026-05-06 03:22 51.14994 -0.18405 210 ft 28 kts 52°
2026-05-06 03:22 51.15036 -0.18314 212 ft 0 kts 53°
2026-05-06 03:22 51.15040 -0.18306 214 ft 2 kts 53°
2026-05-06 03:22 51.15051 -0.18283 206 ft 3 kts 53°
2026-05-06 03:23 51.15073 -0.18237 210 ft 9 kts 52°
2026-05-06 03:23 51.15147 -0.18187 209 ft 15 kts 359°
2026-05-06 03:23 51.15212 -0.18125 208 ft 11 kts 60°
2026-05-06 03:23 51.15257 -0.18096 206 ft 7 kts 354°
2026-05-06 03:24 51.15307 -0.18113 208 ft 8 kts 346°
2026-05-06 03:24 51.15367 -0.18136 209 ft 10 kts 347°
2026-05-06 03:24 51.15437 -0.18132 212 ft 10 kts 21°
2026-05-06 03:24 51.15466 -0.18064 205 ft 7 kts 88°
2026-05-06 03:25 51.15471 -0.17974 207 ft 9 kts 81°
2026-05-06 03:25 51.15492 -0.17885 211 ft 7 kts 52°
2026-05-06 03:25 51.15510 -0.17870 212 ft 0 kts 16°
2026-05-06 03:25 51.15516 -0.17867 213 ft 1 kts 12°
2026-05-06 03:26 51.15528 -0.17866 210 ft 2 kts
2026-05-06 03:26 51.15544 -0.17870 207 ft 0 kts 352°
2026-05-06 03:26 51.15547 -0.17871 207 ft 0 kts 351°